Regional Weather Roundup
Issued by NWS

Home | Current Version | Previous Version | Text Only | Print | Product List | Glossary Off
Versions: 1 2 3 4 5 6 7 8 9 10 11 12 13 14 15 16 17 18 19 20 21 22 23 24 25 26 27 28 29 30 31 32 33 34 35 36 37 38 39 40 41 42 43 44 45 46 47 48 49 50

000
ASUS43 KDTX 061910
RWRMI
MICHIGAN HOURLY REGIONAL WEATHER ROUNDUP
NATIONAL WEATHER SERVICE DETROIT/PONTIAC MI
300 PM EDT MON JUL 06 2015

NOTE: "FAIR" INDICATES FEW OR NO CLOUDS BELOW 12,000 FEET WITH NO
SIGNIFICANT WEATHER AND/OR OBSTRUCTION TO VISIBILITY.

MIZ047>049-052>055-059>063-066>070-074>076-081>083-062000-
SOUTHEAST LOWER MICHIGAN

CITY           SKY/WX    TMP DP  RH WIND       PRES   REMARKS
ADRIAN         SUNNY     83  63  50 W8        30.03F
ALMA           PTSUNNY   83  64  51 S12G17    29.97F
ANN ARBOR      SUNNY     82  64  54 VRB7      30.02F
BAD AXE        MOSUNNY   83  58  42 SW8       29.99F
CARO           MOSUNNY   83  63  49 S8        29.98F
DETROIT CITY   SUNNY     82  60  47 SW12      30.02S
DETROIT        PTSUNNY   83  60  45 VRB5      30.03S
FLINT          MOSUNNY   84  60  44 S9        30.00F
GROSSE ILE     SUNNY     79  66  65 S8        30.02F
HILLSDALE      MOSUNNY   82  63  51 SW7       30.03F
HOWELL         MOSUNNY   83  60  45 SW7       30.01F

CITY           SKY/WX    TMP DP  RH WIND       PRES   REMARKS
JACKSON        SUNNY     82  64  54 SW9       30.01F
LAMBERTVILLE   SUNNY     84  62  47 CALM      30.03F
LANSING        MOSUNNY   82  65  56 S13       29.99F
LAPEER         FAIR      84  54  35 S6        30.01F
MASON          MOSUNNY   79  64  59 S8        30.00F
MONROE         SUNNY     82  64  55 S3        30.01F
MT. CLEMENS    MOSUNNY   81  65  57 SE10      30.00F
PONTIAC        MOSUNNY   83  58  42 S12       30.01F
PORT HOPE        N/A     70  64  81 E17       29.98F
PORT HURON     SUNNY     81  61  50 SW6       30.02S
TRI CITIES     MOSUNNY   85  63  47 SW14      29.98F
MIDLAND        FAIR      83  63  49 S12       29.96F
TROY           SUNNY     85  55  35 W9        30.03F
SAGINAW HB     SUNNY     82  61  47 S10G16    29.97F
$$
MIZ043>046-050>051-056>058-064>065-071>073-077>080-062000-
SOUTHWEST LOWER MICHIGAN

CITY           SKY/WX    TMP DP  RH WIND       PRES   REMARKS
BATTLE CREEK   MOSUNNY   83  67  58 S10       29.99F
BENTON HARBOR  PTSUNNY   85  66  53 S10       29.94F
BIG RAPIDS     PTSUNNY   81  62  52 SW13G20   29.94F
COLDWATER      MOSUNNY   81  64  55 S7        30.00F
FREMONT        FAIR      82  60  47 S9G17     29.93F
HOLLAND        PTSUNNY   84  65  52 S9        29.94F
GRAND RAPIDS   CLOUDY    83  65  54 SW12G20   29.96F
IONIA          FAIR      83  63  50 SW10      29.96F
KALAMAZOO      PTSUNNY   83  66  56 S10       29.97F
LUDINGTON      CLOUDY    82  67  58 S17       29.90F
MOUNT PLEASANT PTSUNNY   83  62  49 S10       29.95F
MUSKEGON       CLOUDY    83  64  52 S15       29.93F
SOUTH HAVEN    PTSUNNY   83  64  51 S9        29.94F
$$
MIZ016>042-062000-
NORTHERN LOWER MICHIGAN

CITY           SKY/WX    TMP DP  RH WIND       PRES   REMARKS
ALPENA         PTSUNNY   83  61  47 S13       29.93F
BEAVER ISLAND  CLOUDY    78  64  61 SW13G24   29.89F
BELLAIRE       CLOUDY    83  62  48 S8        29.88F
CADILLAC       CLOUDY    79  64  58 S12G17    29.94F
CHARLEVOIX     CLOUDY    82  63  53 SW14G20   29.91F
FRANKFORT      CLOUDY    81  61  49 S15G28    29.88F
GAYLORD        PTSUNNY   82  62  50 S17       29.93F
GRAYLING       PTSUNNY   82  62  51 S12G20    29.94F
HARBOR SPRINGS CLOUDY    80  65  60 SW3       29.89F
HOUGHTON LAKE  PTSUNNY   82  62  50 S13G22    29.95F
MANISTEE       CLOUDY    81  64  57 S13G24    29.90F
OSCODA         PTSUNNY   82  61  49 S17       29.95F
PELLSTON       PTSUNNY   82  64  54 W8        29.90F
ROGERS CITY    CLOUDY    82  65  55 S7        29.91F
TRAVERSE CITY  CLOUDY    85  64  49 SW8       29.87F
$$
MIZ007>008-015-062000-
EASTERN UPPER MICHIGAN

CITY           SKY/WX    TMP DP  RH WIND       PRES   REMARKS
KINROSS        CLOUDY    79  66  65 S9G17     29.89F
MACKINAC ISLAN CLOUDY    79  64  59 SW5       29.89F
NEWBERRY       CLOUDY    72  64  77 S14G22    29.88F
S. S. MARIE    CLOUDY    78  65  63 S9        29.88F
MUNISING         N/A     73  68  84 S7        29.81F
$$
MIZ004>006-011>014-085-062000-
CENTRAL UPPER MICHIGAN

CITY           SKY/WX    TMP DP  RH WIND       PRES   REMARKS
MANISTIQUE     CLOUDY    62  58  87 S8        29.86F FOG
ESCANABA       CLOUDY    70  66  88 S3        29.81F
MENOMINEE      CLOUDY    73  66  78 S12       29.80F
SAWYER-GWINN   RAIN      68  66  94 S8        29.83F
$$
MIZ001>003-009>011-084-062000-
WESTERN UPPER MICHIGAN

CITY           SKY/WX    TMP DP  RH WIND       PRES   REMARKS
IRON MOUNTAIN  CLOUDY    70  68  93 S7        29.80R FOG
HOUGHTON       RAIN      59  57  93 N15G22    29.83F FOG
COPPER HARBOR    N/A     52  51  97 N6        29.85F
IRONWOOD       CLOUDY    55  54  94 N10       29.87S
$$

ABBREVIATIONS USED IN REMARKS
   TC - TEMPERATURE IN CELSIUS
  WCI - WIND CHILL INDEX
   HX - HEAT INDEX
  VSB - VISIBILITY



USA.gov is the U.S. government's official web portal to all federal, state and local government web resources and services.